EW0531 Weather Reports


time (UTC)temp
F
wind
direction
speed
knots
gust
knots
rain 1hr
in
rain 24hr
in
rain mn
in
humidity
%
barometer
mb
20260510175037 57 31 6.1 15.6 0.00 0.00 0.00 59 1013.4
20260510174555 57 70 5.2 15.6 0.00 0.00 0.00 59 1013.5
20260510174040 58 47 5.2 13.9 0.00 0.00 0.00 59 1013.5
20260510173539 58 55 5.2 13.0 0.00 0.00 0.00 60 1013.5
20260510173055 58 41 6.1 13.0 0.00 0.00 0.00 60 1013.4
20260510172541 58 49 7.8 13.0 0.00 0.00 0.00 60 1013.4
20260510172037 58 42 6.1 15.6 0.00 0.00 0.00 60 1013.4
20260510171548 58 48 5.2 19.1 0.00 0.00 0.00 60 1013.4
20260510171036 58 24 7.8 19.1 0.00 0.00 0.00 59 1013.4
20260510170537 58 34 7.0 13.0 0.00 0.00 0.00 60 1013.5
20260510170056 58 360 5.2 15.6 0.00 0.00 0.00 59 1013.5
20260510165537 58 103 5.2 15.6 0.00 0.00 0.00 59 1013.5
20260510165038 59 71 6.1 14.8 0.00 0.00 0.00 59 1013.6
20260510164556 59 71 7.8 14.8 0.00 0.00 0.00 59 1013.7
20260510164037 59 40 7.8 15.6 0.00 0.00 0.00 59 1013.7
20260510163536 59 53 7.0 15.6 0.00 0.00 0.00 59 1013.8
20260510163049 59 12 5.2 13.0 0.00 0.00 0.00 59 1013.7
20260510162552 59 53 5.2 13.0 0.00 0.00 0.00 59 1013.7
20260510162034 59 63 5.2 15.6 0.00 0.00 0.00 59 1013.8
20260510161552 59 64 5.2 15.6 0.00 0.00 0.00 58 1013.7
20260510161036 60 32 5.2 14.8 0.00 0.00 0.00 59 1013.8
20260510160536 60 34 5.2 15.6 0.00 0.00 0.00 59 1013.9
20260510160047 60 63 7.0 15.6 0.00 0.00 0.00 58 1013.9
20260510155536 60 46 7.0 17.4 0.00 0.00 0.00 58 1013.9
20260510155033 60 36 7.0 17.4 0.00 0.00 0.00 58 1014.0
20260510154553 60 44 8.7 17.4 0.00 0.00 0.00 58 1014.1
20260510154036 60 19 6.1 17.4 0.00 0.00 0.00 59 1013.9
20260510153535 60 37 8.7 17.4 0.00 0.00 0.00 59 1014.1
20260510153049 60 38 6.1 16.5 0.00 0.00 0.00 59 1014.0
20260510152536 59 52 7.8 16.5 0.00 0.00 0.00 59 1014.1
20260510152033 60 25 7.8 14.8 0.00 0.00 0.00 59 1014.1
20260510151553 60 344 5.2 14.8 0.00 0.00 0.00 59 1014.1
20260510151033 59 60 7.0 18.2 0.00 0.00 0.00 59 1014.2
20260510150537 59 62 7.0 18.2 0.00 0.00 0.00 60 1014.2
20260510150105 60 58 8.7 20.9 0.00 0.00 0.00 60 1014.2
20260510145536 60 53 8.7 20.9 0.00 0.00 0.00 60 1014.2
20260510145036 60 22 8.7 20.9 0.00 0.00 0.00 59 1014.3
20260510144607 60 63 8.7 16.5 0.00 0.00 0.00 59 1014.4
20260510144036 60 34 8.7 16.5 0.00 0.00 0.00 59 1014.2
20260510143536 60 35 6.1 15.6 0.00 0.00 0.00 59 1014.3
20260510143047 60 43 8.7 19.1 0.00 0.00 0.00 59 1014.4
20260510142536 60 20 7.8 19.1 0.00 0.00 0.00 59 1014.4
20260510142036 60 56 8.7 19.1 0.00 0.00 0.00 58 1014.4
20260510141551 60 61 7.8 18.2 0.00 0.00 0.00 58 1014.4
20260510141035 60 55 9.6 20.0 0.00 0.00 0.00 58 1014.6
20260510140538 60 56 8.7 20.0 0.00 0.00 0.00 59 1014.6
20260510140047 60 355 8.7 15.6 0.00 0.00 0.00 58 1014.7
20260510135535 61 36 6.1 16.5 0.00 0.00 0.00 58 1014.7
20260510135037 61 42 5.2 16.5 0.00 0.00 0.00 58 1014.6
20260510134548 61 58 8.7 17.4 0.00 0.00 0.00 57 1014.7
20260510134035 61 94 7.8 17.4 0.00 0.00 0.00 57 1014.8
20260510133535 61 63 6.1 14.8 0.00 0.00 0.00 56 1014.8
20260510133047 62 52 6.1 15.6 0.00 0.00 0.00 56 1014.8
20260510132536 62 35 5.2 15.6 0.00 0.00 0.00 55 1014.9
20260510132036 62 72 5.2 15.6 0.00 0.00 0.00 57 1014.9
20260510131546 61 98 7.8 17.4 0.00 0.00 0.00 56 1015.0
20260510131034 61 77 7.8 17.4 0.00 0.00 0.00 57 1015.0
20260510130536 61 72 7.8 17.4 0.00 0.00 0.00 55 1014.9
20260510130042 62 53 7.0 17.4 0.00 0.00 0.00 54 1015.0
20260510125534 62 49 7.8 20.0 0.00 0.00 0.00 55 1015.0
20260510125033 62 41 7.0 20.0 0.00 0.00 0.00 55 1015.0
20260510124549 62 51 7.8 20.0 0.00 0.00 0.00 55 1015.2
20260510124034 62 46 7.0 17.4 0.00 0.00 0.00 55 1015.2
20260510123537 62 82 7.8 13.9 0.00 0.00 0.00 54 1015.1
20260510123047 62 5 6.1 13.9 0.00 0.00 0.00 53 1015.1
20260510122536 62 90 6.1 13.0 0.00 0.00 0.00 54 1015.0
20260510122035 62 43 7.0 13.0 0.00 0.00 0.00 54 1015.1
20260510121547 62 46 5.2 11.3 0.00 0.00 0.00 55 1015.2
20260510121036 61 98 5.2 17.4 0.00 0.00 0.00 56 1015.2
20260510120536 61 48 6.1 17.4 0.00 0.00 0.00 55 1015.3
20260510120042 61 294 7.0 16.5 0.00 0.00 0.00 55 1015.4
20260510115536 61 91 9.6 16.5 0.00 0.00 0.00 55 1015.5
20260510115034 61 51 6.1 13.9 0.00 0.00 0.00 56 1015.5
20260510114603 61 35 5.2 19.1 0.00 0.00 0.00 57 1015.4
20260510114034 61 53 6.1 19.1 0.00 0.00 0.00 57 1015.5
20260510113536 60 40 8.7 18.2 0.00 0.00 0.00 57 1015.5
20260510113055 60 47 7.8 18.2 0.00 0.00 0.00 57 1015.6
20260510112534 60 63 8.7 18.2 0.00 0.00 0.00 57 1015.7
20260510112034 60 34 8.7 17.4 0.00 0.00 0.00 57 1015.7
20260510111548 60 57 7.8 17.4 0.00 0.00 0.00 58 1015.7
20260510111036 60 21 7.0 17.4 0.00 0.00 0.00 57 1015.8
20260510110535 60 26 8.7 17.4 0.00 0.00 0.00 57 1015.8
20260510110046 60 65 10.4 17.4 0.00 0.00 0.00 57 1015.9
20260510105541 59 59 7.0 19.1 0.00 0.00 0.00 59 1016.0
20260510105037 59 42 7.8 19.1 0.00 0.00 0.00 59 1015.9
20260510104556 59 15 9.6 18.2 0.00 0.00 0.00 59 1016.0
20260510104036 59 26 7.0 17.4 0.00 0.00 0.00 60 1015.9
20260510103536 58 54 9.6 17.4 0.00 0.00 0.00 60 1016.0
20260510103046 59 21 7.0 17.4 0.00 0.00 0.00 60 1016.1
20260510102536 59 71 6.1 17.4 0.00 0.00 0.00 59 1016.0
20260510102037 59 45 7.0 17.4 0.00 0.00 0.00 59 1016.1
20260510101548 59 57 7.0 18.2 0.00 0.00 0.00 59 1016.3
20260510101039 59 71 7.8 18.2 0.00 0.00 0.00 60 1016.2
20260510100536 59 48 8.7 18.2 0.00 0.00 0.00 60 1016.3
20260510100059 59 51 11.3 18.2 0.00 0.00 0.00 60 1016.3
20260510095536 58 103 9.6 18.2 0.00 0.00 0.00 61 1016.4
20260510095036 58 329 8.7 20.9 0.00 0.00 0.00 62 1016.4
20260510094552 57 49 9.6 20.9 0.00 0.00 0.00 63 1016.4
20260510094036 57 85 7.0 25.2 0.00 0.00 0.00 65 1016.4
20260510093535 56 43 9.6 25.2 0.00 0.00 0.00 65 1016.4
20260510093045 56 55 7.8 19.1 0.00 0.00 0.00 66 1016.4
20260510092534 56 74 9.6 19.1 0.00 0.00 0.00 65 1016.4
20260510092033 56 61 7.8 18.2 0.00 0.00 0.00 66 1016.4
20260510091543 55 59 7.8 15.6 0.00 0.00 0.00 68 1016.4
20260510091033 55 13 8.7 15.6 0.00 0.00 0.00 68 1016.6
20260510090536 55 355 6.1 15.6 0.00 0.00 0.00 70 1016.6
20260510090049 54 52 7.8 15.6 0.00 0.00 0.00 70 1016.5
20260510085537 54 69 6.1 13.9 0.00 0.00 0.00 70 1016.5
20260510085037 54 15 7.0 14.8 0.00 0.00 0.00 71 1016.5
20260510084546 54 38 7.8 17.4 0.00 0.00 0.00 71 1016.6
20260510084036 54 44 6.1 17.4 0.00 0.00 0.00 71 1016.5
20260510083536 54 38 7.8 17.4 0.00 0.00 0.00 71 1016.5
20260510083047 54 60 7.8 17.4 0.00 0.00 0.00 71 1016.6
20260510082537 53 55 6.1 19.1 0.00 0.00 0.00 71 1016.6
20260510082036 53 329 10.4 19.1 0.00 0.00 0.00 71 1016.6
20260510081550 53 5 7.8 16.5 0.00 0.00 0.00 72 1016.6
20260510081035 53 46 9.6 21.7 0.00 0.00 0.00 72 1016.6
20260510080534 52 42 8.7 21.7 0.00 0.00 0.00 72 1016.5
20260510080051 52 64 7.8 19.1 0.00 0.00 0.00 72 1016.6
20260510075537 52 69 7.0 19.1 0.00 0.00 0.00 73 1016.6
20260510075033 52 64 8.7 19.1 0.00 0.00 0.00 72 1016.6
20260510074559 52 80 7.8 16.5 0.00 0.00 0.00 73 1016.5
20260510074034 52 23 7.8 18.2 0.00 0.00 0.00 73 1016.6
20260510073533 52 61 7.8 18.2 0.00 0.00 0.00 73 1016.4
20260510073053 52 51 6.1 18.2 0.00 0.00 0.00 73 1016.5
20260510072536 52 34 6.1 17.4 0.00 0.00 0.00 73 1016.5
20260510072038 52 360 8.7 17.4 0.00 0.00 0.00 73 1016.5
20260510071551 52 36 8.7 17.4 0.00 0.00 0.00 73 1016.4
20260510071036 52 23 8.7 20.0 0.00 0.00 0.00 73 1016.4
20260510070536 52 49 7.8 20.0 0.00 0.00 0.00 74 1016.4
20260510070105 51 64 6.1 16.5 0.00 0.00 0.00 74 1016.4
20260510065537 51 42 6.1 16.5 0.00 0.00 0.00 74 1016.4
20260510065035 51 33 7.8 19.1 0.00 0.00 0.00 75 1016.3
20260510064555 51 26 8.7 19.1 0.00 0.00 0.00 75 1016.3
20260510064033 51 37 8.7 16.5 0.00 0.00 0.00 75 1016.5
20260510063536 51 22 7.8 15.6 0.00 0.00 0.00 75 1016.4
20260510063046 51 43 7.8 15.6 0.00 0.00 0.00 75 1016.4
20260510062534 51 347 7.0 16.5 0.00 0.00 0.00 75 1016.3
20260510062036 51 17 7.8 16.5 0.00 0.00 0.00 75 1016.4
20260510061552 51 58 7.0 16.5 0.00 0.00 0.00 76 1016.3
20260510061037 51 29 7.0 13.9 0.00 0.00 0.00 76 1016.3
20260510060537 50 240 4.3 13.0 0.00 0.00 0.00 76 1016.3
20260510060052 50 34 6.1 13.0 0.00 0.00 0.00 76 1016.2
20260510055536 50 45 7.8 15.6 0.00 0.00 0.00 76 1016.2
20260510055035 50 58 6.1 15.6 0.00 0.00 0.00 77 1016.2
20260510054549 50 46 6.1 13.9 0.00 0.00 0.00 76 1016.2
20260510054037 50 129 7.0 13.9 0.00 0.00 0.00 76 1016.2
20260510053536 50 47 6.1 20.0 0.00 0.00 0.00 76 1016.3
20260510053047 50 59 7.0 20.0 0.00 0.00 0.00 76 1016.2
20260510052536 50 22 5.2 14.8 0.00 0.00 0.00 76 1016.3
20260510052036 50 22 6.1 14.8 0.00 0.00 0.00 76 1016.3
20260510051548 50 54 6.1 14.8 0.00 0.00 0.00 76 1016.3
20260510051036 50 26 5.2 18.2 0.00 0.00 0.00 76 1016.3
20260510050537 50 9 5.2 18.2 0.00 0.00 0.00 76 1016.3
20260510050053 50 24 6.1 13.0 0.00 0.00 0.00 76 1016.3
20260510045536 50 59 5.2 13.0 0.00 0.00 0.00 75 1016.4
20260510045035 50 62 3.5 14.8 0.00 0.00 0.00 75 1016.4
20260510044548 50 61 5.2 14.8 0.00 0.00 0.00 75 1016.3
20260510044036 51 58 5.2 11.3 0.00 0.00 0.00 75 1016.3
20260510043536 51 32 4.3 12.2 0.00 0.00 0.00 74 1016.2
20260510043042 51 27 6.1 12.2 0.00 0.00 0.00 75 1016.2
20260510042537 51 320 5.2 12.2 0.00 0.00 0.00 74 1016.2
20260510042039 51 33 3.5 12.2 0.00 0.00 0.00 74 1016.3
20260510041556 51 16 4.3 12.2 0.00 0.00 0.00 73 1016.3
20260510041037 52 45 4.3 10.4 0.00 0.00 0.00 73 1016.4
20260510040540 52 15 3.5 13.0 0.00 0.00 0.00 73 1016.4
20260510040052 52 42 4.3 13.0 0.00 0.00 0.00 73 1016.4
20260510035537 52 42 6.1 12.2 0.00 0.00 0.00 72 1016.4
20260510035036 52 87 6.1 11.3 0.00 0.00 0.00 72 1016.5
20260510034549 52 26 3.5 12.2 0.00 0.00 0.00 71 1016.4
20260510034036 52 60 5.2 12.2 0.00 0.00 0.00 71 1016.5
20260510033535 53 71 5.2 12.2 0.00 0.00 0.00 71 1016.4
20260510033103 53 38 5.2 13.0 0.00 0.00 0.00 70 1016.5
20260510032538 53 67 5.2 13.0 0.00 0.00 0.00 69 1016.6
20260510032036 53 41 5.2 13.0 0.00 0.00 0.00 68 1016.7
20260510031543 53 26 5.2 11.3 0.00 0.00 0.00 67 1016.7
20260510031037 53 46 5.2 11.3 0.00 0.00 0.00 66 1016.7
20260510030537 53 42 5.2 11.3 0.00 0.00 0.00 65 1016.8
20260510030048 54 41 4.3 11.3 0.00 0.00 0.00 64 1016.8
20260510025537 54 45 5.2 11.3 0.00 0.00 0.00 63 1016.8
20260510025037 54 340 3.5 11.3 0.00 0.00 0.00 62 1016.7
20260510024545 54 5 5.2 11.3 0.00 0.00 0.00 61 1016.8
20260510024037 55 344 3.5 10.4 0.00 0.00 0.00 61 1016.8
20260510023537 55 39 4.3 10.4 0.00 0.00 0.00 60 1016.8
20260510023047 55 94 3.5 10.4 0.00 0.00 0.00 60 1016.8
20260510022536 55 13 4.3 11.3 0.00 0.00 0.00 60 1016.8
20260510022036 55 34 2.6 13.9 0.00 0.00 0.00 60 1016.5
20260510021547 55 57 7.0 13.9 0.00 0.00 0.00 59 1016.4
20260510021035 56 52 4.3 13.0 0.00 0.00 0.00 59 1016.4
20260510020536 56 27 4.3 13.0 0.00 0.00 0.00 59 1016.4
20260510020045 56 21 4.3 12.2 0.00 0.00 0.00 58 1016.4
20260510015536 56 21 6.1 12.2 0.00 0.00 0.00 58 1016.4
20260510015038 56 30 5.2 12.2 0.00 0.00 0.00 57 1016.4
20260510014543 56 59 4.3 11.3 0.00 0.00 0.00 56 1016.4
20260510014033 56 5 3.5 12.2 0.00 0.00 0.00 56 1016.4
20260510013534 56 5 5.2 12.2 0.00 0.00 0.00 55 1016.5
20260510013044 56 65 4.3 12.2 0.00 0.00 0.00 55 1016.5
20260510012535 57 44 5.2 12.2 0.00 0.00 0.00 54 1016.4
20260510012036 57 57 3.5 10.4 0.00 0.00 0.00 54 1016.4
20260510011541 57 17 3.5 10.4 0.00 0.00 0.00 54 1016.4
20260510011037 57 60 4.3 10.4 0.00 0.00 0.00 53 1016.6
20260510010536 57 40 2.6 9.6 0.00 0.00 0.00 53 1016.6
20260510010058 57 67 2.6 12.2 0.00 0.00 0.00 53 1016.6
20260510005536 57 54 3.5 12.2 0.00 0.00 0.00 53 1016.6
20260510005037 57 41 6.1 12.2 0.00 0.00 0.00 52 1016.5
20260510004546 58 63 6.1 12.2 0.00 0.00 0.00 52 1016.6
20260510004036 58 63 6.1 12.2 0.00 0.00 0.00 51 1016.5
20260510003534 58 98 4.3 11.3 0.00 0.00 0.00 51 1016.6
20260510003058 58 57 6.1 12.2 0.00 0.00 0.00 50 1016.5
20260510002535 58 85 3.5 12.2 0.00 0.00 0.00 51 1016.5
20260510002036 58 25 4.3 12.2 0.00 0.00 0.00 50 1016.5
20260510001550 58 41 3.5 9.6 0.00 0.00 0.00 50 1016.5
20260510001037 58 24 3.5 10.4 0.00 0.00 0.00 50 1016.6
20260510000534 58 51 3.5 12.2 0.00 0.00 0.00 49 1016.6
20260510000052 59 58 5.2 12.2 0.00 0.00 0.00 49 1016.6
20260509235534 59 62 3.5 12.2 0.00 0.00 0.00 49 1016.6
20260509235035 59 59 3.5 10.4 0.00 0.00 0.00 49 1016.6
20260509234603 59 45 2.6 8.7 0.00 0.00 0.00 49 1016.6
20260509234035 59 52 3.5 8.7 0.00 0.00 0.00 49 1016.5
20260509233537 59 71 2.6 8.7 0.00 0.00 0.00 49 1016.5
20260509233045 59 49 2.6 7.8 0.00 0.00 0.00 49 1016.6
20260509232534 59 33 4.3 9.6 0.00 0.00 0.00 49 1016.5
20260509232036 60 65 3.5 9.6 0.00 0.00 0.00 49 1016.5
20260509231546 60 26 3.5 9.6 0.00 0.00 0.00 49 1016.5
20260509231035 60 69 4.3 10.4 0.00 0.00 0.00 49 1016.5
20260509230534 60 68 4.3 10.4 0.00 0.00 0.00 49 1016.5
20260509230048 60 63 2.6 8.7 0.00 0.00 0.00 49 1016.4
20260509225539 60 69 2.6 8.7 0.00 0.00 0.00 50 1016.4
20260509225035 60 42 1.7 7.0 0.00 0.00 0.00 50 1016.3
20260509224549 61 16 2.6 7.8 0.00 0.00 0.00 50 1016.3
20260509224036 61 44 3.5 9.6 0.00 0.00 0.00 50 1016.3
20260509223536 61 40 3.5 10.4 0.00 0.00 0.00 49 1016.3
20260509223049 61 50 4.3 10.4 0.00 0.00 0.00 49 1016.3
20260509222536 61 49 3.5 10.4 0.00 0.00 0.00 50 1016.2
20260509222036 62 16 2.6 9.6 0.00 0.00 0.00 51 1016.4
20260509221550 62 44 2.6 10.4 0.00 0.00 0.00 51 1016.3
20260509221035 62 84 5.2 10.4 0.00 0.00 0.00 51 1016.1
20260509220535 62 42 4.3 10.4 0.00 0.00 0.00 52 1016.2
20260509220100 62 64 5.2 10.4 0.00 0.00 0.00 53 1016.1
20260509215535 62 42 2.6 7.8 0.00 0.00 0.00 54 1016.2
20260509215038 62 63 3.5 10.4 0.00 0.00 0.00 53 1016.1
20260509214547 63 92 3.5 10.4 0.00 0.00 0.00 53 1016.1
20260509214036 63 78 5.2 10.4 0.00 0.00 0.00 53 1016.2
20260509213537 63 58 3.5 7.8 0.00 0.00 0.00 55 1016.1
20260509213050 63 71 2.6 7.0 0.00 0.00 0.00 56 1016.1
20260509212535 63 37 2.6 7.8 0.00 0.00 0.00 56 1016.2
20260509212035 63 46 3.5 7.8 0.00 0.00 0.00 56 1016.1
20260509211554 63 55 2.6 6.1 0.00 0.00 0.00 57 1016.1
20260509211033 63 72 1.7 6.1 0.00 0.00 0.00 57 1016.2
20260509210538 63 61 2.6 6.1 0.00 0.00 0.00 58 1016.1
20260509210047 63 59 1.7 4.3 0.00 0.00 0.00 59 1016.1
20260509205536 63 74 0.9 3.5 0.00 0.00 0.00 60 1016.0
20260509205036 63 63 0.9 3.5 0.00 0.00 0.00 60 1016.0
20260509204557 63 53 0.9 3.5 0.00 0.00 0.00 60 1015.9
20260509204036 63 46 0.9 2.6 0.00 0.00 0.00 60 1015.8
20260509203536 64 54 0.0 3.5 0.00 0.00 0.00 59 1015.7
20260509203047 64 54 1.7 3.5 0.00 0.00 0.00 59 1015.5
20260509202536 64 0 0.9 3.5 0.00 0.00 0.00 59 1015.6
20260509202036 64 40 1.7 3.5 0.00 0.00 0.00 59 1015.5
20260509201550 64 57 0.9 3.5 0.00 0.00 0.00 60 1015.5
20260509201037 64 42 1.7 3.5 0.00 0.00 0.00 60 1015.4
20260509200533 65 28 0.9 3.5 0.00 0.00 0.00 60 1015.4
20260509200045 65 36 0.0 3.5 0.00 0.00 0.00 60 1015.5
20260509195534 65 34 0.0 2.6 0.00 0.00 0.00 60 1015.4
20260509195033 65 0 0.0 0.0 0.00 0.00 0.00 60 1015.4
20260509194545 65 0 0.0 0.0 0.00 0.00 0.00 60 1015.4
20260509194035 65 0 0.0 0.0 0.00 0.00 0.00 60 1015.3
20260509193537 65 0 0.0 0.0 0.00 0.00 0.00 60 1015.2
20260509193049 65 0 0.0 0.0 0.00 0.00 0.00 59 1015.1
20260509192539 65 0 0.0 0.0 0.00 0.00 0.00 59 1015.1
20260509192036 66 0 0.0 0.0 0.00 0.00 0.00 59 1015.2
20260509191553 66 0 0.0 0.0 0.00 0.00 0.00 58 1015.2
20260509191040 66 0 0.0 0.0 0.00 0.00 0.00 58 1015.2
20260509190535 66 0 0.0 0.0 0.00 0.00 0.00 58 1015.0
20260509190047 66 0 0.0 0.0 0.00 0.00 0.00 58 1015.0
20260509185533 66 0 0.0 0.0 0.00 0.00 0.00 58 1015.0
20260509185037 66 0 0.0 0.0 0.00 0.00 0.00 57 1015.0
20260509184542 65 0 0.0 0.0 0.00 0.00 0.00 58 1015.1
20260509184035 65 0 0.0 0.0 0.00 0.00 0.00 59 1015.2
20260509183534 65 0 0.0 2.6 0.00 0.00 0.00 60 1015.2
20260509183054 65 0 0.0 2.6 0.00 0.00 0.00 60 1015.1
20260509182537 65 0 0.0 2.6 0.00 0.00 0.00 60 1015.1
20260509182034 65 247 0.9 2.6 0.00 0.00 0.00 60 1015.1
20260509181550 66 0 0.0 0.0 0.00 0.00 0.00 60 1015.1
20260509181035 65 0 0.0 0.0 0.00 0.00 0.00 60 1015.2
20260509180537 66 0 0.0 1.7 0.00 0.00 0.00 60 1015.1
20260509180053 66 0 0.0 1.7 0.00 0.00 0.00 60 1015.2
20260509175535 66 0 0.0 1.7 0.00 0.00 0.00 59 1015.2